SKY MUSTER 2

Last updated on Jan. 18, 2020, 4:38 a.m. UTC

1 41794U 16060B   20017.52063380 -.00000249  00000-0  00000+0 0  9990
2 41794   0.0156   6.4393 0001662 302.6189 139.5527  1.00271123 12088
UTC
Height (km)
Latitude
Longitude
Inclination
Orbital Period
UTC large
Height (km)
Speed (km/s)
/
Latitude / Longitude
Inclination (degrees)
Orbital Period (minutes)
Azimuth
Elevation
Range (km)
Doppler Factor
iOS Compass Heading
iOS Angle

Next 30 passes for location: Hong Kong

Rise time Rise Azimuth (degrees) Set time Set Azimuth (degrees) Duration Max altitude (degrees)

No matching passes for this satellites